Find Starlink 2563

NORAD ID: 48410 Int'l Des: 2021-038 Owner: SPXS Country: US Constellation: starlink operational
LEOCIRCULARSTARLINK_TYPE

当前视图

正在加载3D地球...

About Starlink 2563

Starlink 2563 (NORAD 48410) is a starlink constellation satellite (v1.0) launched May 4, 2021 by SPXS of US. It operates in LEO, CIRCULAR, STARLINK_TYPE orbit with a mass of 260.00 kg.

关于 Starlink 2563

正在加载描述...

即将过境

Passes for default location (London). Set your location on the main map for personalized predictions.

高度历史

Loading altitude history...

两行轨道根数

1 48410U 21038BK 26194.96562668 .00001964 00000-0 75034-4 0 9994
2 48410 53.1607 69.0345 0001306 87.5542 272.5609 15.31699684287290
Epoch: Jul 13, 2026 • Age: 10 hours

当前状态

高度 473.5 km
远地点 / 近地点 N/A
速度 7.63 km/s
星下点 39.68°N, 41.11°E
发射日期 May 4, 2021
运行时间 5.1 years
类型 internet

技术详情

分类 Payload
质量 260.00 kg
干质量 248.00 kg
总质量 260.00 kg
长度 0.20 m
直径 2.80 m
跨度 9.00 m
形状 Box + pan
制造商 SPXS
平台类型 Starlink
阶段状态 In Orbit
所有者/国家 SPXS/US

Most Searched